owner,sensor,date,latitude,longitude,vertical_datum,wind_speed,wind_to_direction,wind_speed_of_gust,qcFlag 
TCOON,ioos:station:TCOON:005:1,2013-09-01T00:00:00Z,27.6346,-97.2370,0.0,6.1,124.0,8.0,'11111222,11111222,11111222' 
TCOON,ioos:station:TCOON:005:1,2013-09-01T00:06:00Z,27.6346,-97.2370,0.0,5.5,134.0,7.7,'11111222,11111222,11111222' 
TCOON,ioos:station:TCOON:005:1,2013-09-01T00:12:00Z,27.6346,-97.2370,0.0,6.0,131.0,7.5,'11111222,11111222,11111222' 
TCOON,ioos:station:TCOON:005:1,2013-09-01T00:18:00Z,27.6346,-97.2370,0.0,5.2,131.0,8.0,'11111222,11111222,11111222' 
TCOON,ioos:station:TCOON:005:1,2013-09-01T00:24:00Z,27.6346,-97.2370,0.0,5.4,127.0,6.7,'11111222,11111222,11111222' 
TCOON,ioos:station:TCOON:005:1,2013-09-01T00:30:00Z,27.6346,-97.2370,0.0,6.0,123.0,7.5,'11111222,11111222,11111222' 
TCOON,ioos:station:TCOON:005:1,2013-09-01T00:36:00Z,27.6346,-97.2370,0.0,5.5,124.0,7.5,'11111222,11111222,11111222' 
TCOON,ioos:station:TCOON:005:1,2013-09-01T00:42:00Z,27.6346,-97.2370,0.0,5.3,133.0,7.5,'11111222,11111222,11111222' 
TCOON,ioos:station:TCOON:005:1,2013-09-01T00:48:00Z,27.6346,-97.2370,0.0,4.3,132.0,5.6,'11111222,11111222,11111222' 
TCOON,ioos:station:TCOON:005:1,2013-09-01T00:54:00Z,27.6346,-97.2370,0.0,4.7,127.0,6.4,'11111222,11111222,11111222' 
TCOON,ioos:station:TCOON:005:1,2013-09-01T01:00:00Z,27.6346,-97.2370,0.0,4.7,129.0,6.2,'11111222,11111222,11111222' 
TCOON,ioos:station:TCOON:005:1,2013-09-01T01:06:00Z,27.6346,-97.2370,0.0,4.4,127.0,6.7,'11111222,11111222,11111222' 
TCOON,ioos:station:TCOON:005:1,2013-09-01T01:12:00Z,27.6346,-97.2370,0.0,4.6,131.0,7.3,'11111222,11111222,11111222' 
TCOON,ioos:station:TCOON:005:1,2013-09-01T01:18:00Z,27.6346,-97.2370,0.0,4.4,137.0,6.2,'11111222,11111222,11111222' 
TCOON,ioos:station:TCOON:005:1,2013-09-01T01:24:00Z,27.6346,-97.2370,0.0,4.0,137.0,6.5,'11111222,11111222,11111222' 
TCOON,ioos:station:TCOON:005:1,2013-09-01T01:30:00Z,27.6346,-97.2370,0.0,4.1,136.0,5.8,'11111222,11111222,11111222' 
TCOON,ioos:station:TCOON:005:1,2013-09-01T01:36:00Z,27.6346,-97.2370,0.0,4.6,130.0,5.9,'11111222,11111222,11111222' 
TCOON,ioos:station:TCOON:005:1,2013-09-01T01:42:00Z,27.6346,-97.2370,0.0,4.2,133.0,6.9,'11111222,11111222,11111222' 
TCOON,ioos:station:TCOON:005:1,2013-09-01T01:48:00Z,27.6346,-97.2370,0.0,4.7,136.0,6.4,'11111222,11111222,11111222' 
TCOON,ioos:station:TCOON:005:1,2013-09-01T01:54:00Z,27.6346,-97.2370,0.0,4.9,131.0,6.0,'11111222,11111222,11111222' 
TCOON,ioos:station:TCOON:005:1,2013-09-01T02:00:00Z,27.6346,-97.2370,0.0,4.3,138.0,5.9,'11111222,11111222,11111222' 
TCOON,ioos:station:TCOON:005:1,2013-09-01T02:06:00Z,27.6346,-97.2370,0.0,3.9,124.0,5.6,'11111222,11111222,11111222' 
TCOON,ioos:station:TCOON:005:1,2013-09-01T02:12:00Z,27.6346,-97.2370,0.0,3.7,130.0,4.8,'11111222,11111222,11111222' 
TCOON,ioos:station:TCOON:005:1,2013-09-01T02:18:00Z,27.6346,-97.2370,0.0,4.6,133.0,6.7,'11111222,11111222,11111222' 
TCOON,ioos:station:TCOON:005:1,2013-09-01T02:24:00Z,27.6346,-97.2370,0.0,4.1,124.0,5.3,'11111222,11111222,11111222' 
TCOON,ioos:station:TCOON:005:1,2013-09-01T02:30:00Z,27.6346,-97.2370,0.0,4.7,122.0,5.5,'11111222,11111222,11111222' 
TCOON,ioos:station:TCOON:005:1,2013-09-01T02:36:00Z,27.6346,-97.2370,0.0,3.9,128.0,5.0,'11111222,11111222,11111222' 
TCOON,ioos:station:TCOON:005:1,2013-09-01T02:42:00Z,27.6346,-97.2370,0.0,4.0,134.0,5.4,'11111222,11111222,11111222' 
TCOON,ioos:station:TCOON:005:1,2013-09-01T02:48:00Z,27.6346,-97.2370,0.0,3.4,126.0,5.1,'11111222,11111222,11111222' 
TCOON,ioos:station:TCOON:005:1,2013-09-01T02:54:00Z,27.6346,-97.2370,0.0,3.6,126.0,5.5,'11111222,11111222,11111222' 
TCOON,ioos:station:TCOON:005:1,2013-09-01T03:00:00Z,27.6346,-97.2370,0.0,3.6,130.0,4.9,'11111222,11111222,11111222' 
TCOON,ioos:station:TCOON:005:1,2013-09-01T03:06:00Z,27.6346,-97.2370,0.0,3.3,127.0,4.6,'11111222,11111222,11111222' 
TCOON,ioos:station:TCOON:005:1,2013-09-01T03:12:00Z,27.6346,-97.2370,0.0,4.0,129.0,5.4,'11111222,11111222,11111222' 
TCOON,ioos:station:TCOON:005:1,2013-09-01T03:18:00Z,27.6346,-97.2370,0.0,4.5,126.0,5.8,'11111222,11111222,11111222' 
TCOON,ioos:station:TCOON:005:1,2013-09-01T03:24:00Z,27.6346,-97.2370,0.0,4.4,126.0,6.0,'11111222,11111222,11111222' 
TCOON,ioos:station:TCOON:005:1,2013-09-01T03:30:00Z,27.6346,-97.2370,0.0,4.4,125.0,5.3,'11111222,11111222,11111222' 
TCOON,ioos:station:TCOON:005:1,2013-09-01T03:36:00Z,27.6346,-97.2370,0.0,5.0,137.0,5.8,'11111222,11111222,11111222' 
TCOON,ioos:station:TCOON:005:1,2013-09-01T03:42:00Z,27.6346,-97.2370,0.0,3.5,144.0,6.0,'11111222,11111222,11111222' 
TCOON,ioos:station:TCOON:005:1,2013-09-01T03:48:00Z,27.6346,-97.2370,0.0,3.5,139.0,5.7,'11111222,11111222,11111222' 
TCOON,ioos:station:TCOON:005:1,2013-09-01T03:54:00Z,27.6346,-97.2370,0.0,4.0,135.0,5.3,'11111222,11111222,11111222' 
TCOON,ioos:station:TCOON:005:1,2013-09-01T04:00:00Z,27.6346,-97.2370,0.0,4.2,144.0,6.2,'11111222,11111222,11111222' 
TCOON,ioos:station:TCOON:005:1,2013-09-01T04:06:00Z,27.6346,-97.2370,0.0,3.7,140.0,5.8,'11111222,11111222,11111222' 
TCOON,ioos:station:TCOON:005:1,2013-09-01T04:12:00Z,27.6346,-97.2370,0.0,4.1,147.0,5.1,'11111222,11111222,11111222' 
TCOON,ioos:station:TCOON:005:1,2013-09-01T04:18:00Z,27.6346,-97.2370,0.0,3.6,147.0,5.8,'11111222,11111222,11111222' 
TCOON,ioos:station:TCOON:005:1,2013-09-01T04:24:00Z,27.6346,-97.2370,0.0,4.2,144.0,5.2,'11111222,11111222,11111222' 
TCOON,ioos:station:TCOON:005:1,2013-09-01T04:30:00Z,27.6346,-97.2370,0.0,5.1,142.0,6.8,'11111222,11111222,11111222' 
TCOON,ioos:station:TCOON:005:1,2013-09-01T04:36:00Z,27.6346,-97.2370,0.0,4.7,140.0,6.5,'11111222,11111222,11111222' 
TCOON,ioos:station:TCOON:005:1,2013-09-01T04:42:00Z,27.6346,-97.2370,0.0,4.6,145.0,6.3,'11111222,11111222,11111222' 
TCOON,ioos:station:TCOON:005:1,2013-09-01T04:48:00Z,27.6346,-97.2370,0.0,4.3,141.0,6.6,'11111222,11111222,11111222' 
TCOON,ioos:station:TCOON:005:1,2013-09-01T04:54:00Z,27.6346,-97.2370,0.0,4.4,147.0,6.3,'11111222,11111222,11111222' 
TCOON,ioos:station:TCOON:005:1,2013-09-01T05:00:00Z,27.6346,-97.2370,0.0,5.2,148.0,6.7,'11111222,11111222,11111222' 
TCOON,ioos:station:TCOON:005:1,2013-09-01T05:06:00Z,27.6346,-97.2370,0.0,3.7,149.0,6.5,'11111222,11111222,11111222' 
TCOON,ioos:station:TCOON:005:1,2013-09-01T05:12:00Z,27.6346,-97.2370,0.0,4.7,147.0,6.8,'11111222,11111222,11111222' 
TCOON,ioos:station:TCOON:005:1,2013-09-01T05:18:00Z,27.6346,-97.2370,0.0,3.8,150.0,6.2,'11111222,11111222,11111222' 
TCOON,ioos:station:TCOON:005:1,2013-09-01T05:24:00Z,27.6346,-97.2370,0.0,5.2,151.0,7.0,'11111222,11111222,11111222' 
TCOON,ioos:station:TCOON:005:1,2013-09-01T05:30:00Z,27.6346,-97.2370,0.0,4.7,146.0,7.2,'11111222,11111222,11111222' 
TCOON,ioos:station:TCOON:005:1,2013-09-01T05:36:00Z,27.6346,-97.2370,0.0,4.9,150.0,7.2,'11111222,11111222,11111222' 
TCOON,ioos:station:TCOON:005:1,2013-09-01T05:42:00Z,27.6346,-97.2370,0.0,4.5,150.0,5.6,'11111222,11111222,11111222' 
TCOON,ioos:station:TCOON:005:1,2013-09-01T05:48:00Z,27.6346,-97.2370,0.0,5.5,142.0,7.7,'11111222,11111222,11111222' 
TCOON,ioos:station:TCOON:005:1,2013-09-01T05:54:00Z,27.6346,-97.2370,0.0,5.8,151.0,7.4,'11111222,11111222,11111222' 
TCOON,ioos:station:TCOON:005:1,2013-09-01T06:00:00Z,27.6346,-97.2370,0.0,5.2,150.0,7.5,'11111222,11111222,11111222' 
TCOON,ioos:station:TCOON:005:1,2013-09-01T06:06:00Z,27.6346,-97.2370,0.0,4.7,156.0,6.4,'11111222,11111222,11111222' 
TCOON,ioos:station:TCOON:005:1,2013-09-01T06:12:00Z,27.6346,-97.2370,0.0,4.3,149.0,6.2,'11111222,11111222,11111222' 
TCOON,ioos:station:TCOON:005:1,2013-09-01T06:18:00Z,27.6346,-97.2370,0.0,4.9,157.0,6.6,'11111222,11111222,11111222' 
TCOON,ioos:station:TCOON:005:1,2013-09-01T06:24:00Z,27.6346,-97.2370,0.0,5.5,151.0,7.0,'11111222,11111222,11111222' 
TCOON,ioos:station:TCOON:005:1,2013-09-01T06:30:00Z,27.6346,-97.2370,0.0,5.8,150.0,7.4,'11111222,11111222,11111222' 
TCOON,ioos:station:TCOON:005:1,2013-09-01T06:36:00Z,27.6346,-97.2370,0.0,4.9,152.0,7.4,'11111222,11111222,11111222' 
TCOON,ioos:station:TCOON:005:1,2013-09-01T06:42:00Z,27.6346,-97.2370,0.0,4.8,156.0,6.4,'11111222,11111222,11111222' 
TCOON,ioos:station:TCOON:005:1,2013-09-01T06:48:00Z,27.6346,-97.2370,0.0,4.8,149.0,6.3,'11111222,11111222,11111222' 
TCOON,ioos:station:TCOON:005:1,2013-09-01T06:54:00Z,27.6346,-97.2370,0.0,4.1,154.0,6.1,'11111222,11111222,11111222' 
TCOON,ioos:station:TCOON:005:1,2013-09-01T07:00:00Z,27.6346,-97.2370,0.0,3.9,151.0,5.6,'11111222,11111222,11111222' 
TCOON,ioos:station:TCOON:005:1,2013-09-01T07:06:00Z,27.6346,-97.2370,0.0,4.8,152.0,6.8,'11111222,11111222,11111222' 
TCOON,ioos:station:TCOON:005:1,2013-09-01T07:12:00Z,27.6346,-97.2370,0.0,4.7,158.0,6.8,'11111222,11111222,11111222' 
TCOON,ioos:station:TCOON:005:1,2013-09-01T07:18:00Z,27.6346,-97.2370,0.0,4.7,162.0,6.1,'11111222,11111222,11111222' 
TCOON,ioos:station:TCOON:005:1,2013-09-01T07:24:00Z,27.6346,-97.2370,0.0,4.8,160.0,6.4,'11111222,11111222,11111222' 
TCOON,ioos:station:TCOON:005:1,2013-09-01T07:30:00Z,27.6346,-97.2370,0.0,4.7,161.0,6.2,'11111222,11111222,11111222' 
TCOON,ioos:station:TCOON:005:1,2013-09-01T07:36:00Z,27.6346,-97.2370,0.0,5.4,160.0,7.3,'11111222,11111222,11111222' 
TCOON,ioos:station:TCOON:005:1,2013-09-01T07:42:00Z,27.6346,-97.2370,0.0,4.8,160.0,6.9,'11111222,11111222,11111222' 
TCOON,ioos:station:TCOON:005:1,2013-09-01T07:48:00Z,27.6346,-97.2370,0.0,4.9,165.0,6.7,'11111222,11111222,11111222' 
TCOON,ioos:station:TCOON:005:1,2013-09-01T07:54:00Z,27.6346,-97.2370,0.0,5.2,163.0,7.6,'11111222,11111222,11111222' 
TCOON,ioos:station:TCOON:005:1,2013-09-01T08:00:00Z,27.6346,-97.2370,0.0,5.5,161.0,7.3,'11111222,11111222,11111222' 
TCOON,ioos:station:TCOON:005:1,2013-09-01T08:06:00Z,27.6346,-97.2370,0.0,4.7,166.0,7.6,'11111222,11111222,11111222' 
TCOON,ioos:station:TCOON:005:1,2013-09-01T08:12:00Z,27.6346,-97.2370,0.0,4.9,163.0,6.6,'11111222,11111222,11111222' 
TCOON,ioos:station:TCOON:005:1,2013-09-01T08:18:00Z,27.6346,-97.2370,0.0,5.6,162.0,6.9,'11111222,11111222,11111222' 
TCOON,ioos:station:TCOON:005:1,2013-09-01T08:24:00Z,27.6346,-97.2370,0.0,6.4,163.0,7.9,'11111222,11111222,11111222' 
TCOON,ioos:station:TCOON:005:1,2013-09-01T08:30:00Z,27.6346,-97.2370,0.0,4.0,162.0,7.9,'11111222,11111222,11111222' 
TCOON,ioos:station:TCOON:005:1,2013-09-01T08:36:00Z,27.6346,-97.2370,0.0,5.5,164.0,7.4,'11111222,11111222,11111222' 
TCOON,ioos:station:TCOON:005:1,2013-09-01T08:42:00Z,27.6346,-97.2370,0.0,5.2,162.0,7.0,'11111222,11111222,11111222' 
TCOON,ioos:station:TCOON:005:1,2013-09-01T08:48:00Z,27.6346,-97.2370,0.0,4.5,168.0,5.4,'11111222,11111222,11111222' 
TCOON,ioos:station:TCOON:005:1,2013-09-01T08:54:00Z,27.6346,-97.2370,0.0,4.6,172.0,6.3,'11111222,11111222,11111222' 
TCOON,ioos:station:TCOON:005:1,2013-09-01T09:00:00Z,27.6346,-97.2370,0.0,5.0,164.0,6.4,'11111222,11111222,11111222' 
TCOON,ioos:station:TCOON:005:1,2013-09-01T09:06:00Z,27.6346,-97.2370,0.0,4.4,169.0,7.1,'11111222,11111222,11111222' 
TCOON,ioos:station:TCOON:005:1,2013-09-01T09:12:00Z,27.6346,-97.2370,0.0,3.7,170.0,4.7,'11111222,11111222,11111222' 
TCOON,ioos:station:TCOON:005:1,2013-09-01T09:18:00Z,27.6346,-97.2370,0.0,4.8,175.0,7.8,'11111222,11111222,11111222' 
TCOON,ioos:station:TCOON:005:1,2013-09-01T09:24:00Z,27.6346,-97.2370,0.0,4.8,169.0,6.4,'11111222,11111222,11111222' 
TCOON,ioos:station:TCOON:005:1,2013-09-01T09:30:00Z,27.6346,-97.2370,0.0,5.0,172.0,6.4,'11111222,11111222,11111222' 
TCOON,ioos:station:TCOON:005:1,2013-09-01T09:36:00Z,27.6346,-97.2370,0.0,4.5,173.0,5.9,'11111222,11111222,11111222' 
TCOON,ioos:station:TCOON:005:1,2013-09-01T09:42:00Z,27.6346,-97.2370,0.0,4.0,178.0,6.1,'11111222,11111222,11111222' 
TCOON,ioos:station:TCOON:005:1,2013-09-01T09:48:00Z,27.6346,-97.2370,0.0,3.9,176.0,5.0,'11111222,11111222,11111222' 
TCOON,ioos:station:TCOON:005:1,2013-09-01T09:54:00Z,27.6346,-97.2370,0.0,3.7,173.0,4.9,'11111222,11111222,11111222' 
TCOON,ioos:station:TCOON:005:1,2013-09-01T10:00:00Z,27.6346,-97.2370,0.0,4.3,179.0,5.2,'11111222,11111222,11111222' 
TCOON,ioos:station:TCOON:005:1,2013-09-01T10:06:00Z,27.6346,-97.2370,0.0,4.2,176.0,5.6,'11111222,11111222,11111222' 
TCOON,ioos:station:TCOON:005:1,2013-09-01T10:12:00Z,27.6346,-97.2370,0.0,4.1,180.0,5.1,'11111222,11111222,11111222' 
TCOON,ioos:station:TCOON:005:1,2013-09-01T10:18:00Z,27.6346,-97.2370,0.0,3.9,175.0,4.7,'11111222,11111222,11111222' 
TCOON,ioos:station:TCOON:005:1,2013-09-01T10:24:00Z,27.6346,-97.2370,0.0,3.7,176.0,5.1,'11111222,11111222,11111222' 
TCOON,ioos:station:TCOON:005:1,2013-09-01T10:30:00Z,27.6346,-97.2370,0.0,4.1,185.0,5.0,'11111222,11111222,11111222' 
TCOON,ioos:station:TCOON:005:1,2013-09-01T10:36:00Z,27.6346,-97.2370,0.0,3.2,192.0,4.3,'11111222,11111222,11111222' 
TCOON,ioos:station:TCOON:005:1,2013-09-01T10:42:00Z,27.6346,-97.2370,0.0,3.3,202.0,4.3,'11111222,11111222,11111222' 
TCOON,ioos:station:TCOON:005:1,2013-09-01T10:48:00Z,27.6346,-97.2370,0.0,3.6,203.0,3.9,'11111222,11111222,11111222' 
TCOON,ioos:station:TCOON:005:1,2013-09-01T10:54:00Z,27.6346,-97.2370,0.0,3.8,200.0,4.4,'11111222,11111222,11111222' 
TCOON,ioos:station:TCOON:005:1,2013-09-01T11:00:00Z,27.6346,-97.2370,0.0,3.8,198.0,4.6,'11111222,11111222,11111222' 
TCOON,ioos:station:TCOON:005:1,2013-09-01T11:06:00Z,27.6346,-97.2370,0.0,3.0,201.0,3.9,'11111222,11111222,11111222' 
TCOON,ioos:station:TCOON:005:1,2013-09-01T11:12:00Z,27.6346,-97.2370,0.0,3.3,202.0,4.0,'11111222,11111222,11111222' 
TCOON,ioos:station:TCOON:005:1,2013-09-01T11:18:00Z,27.6346,-97.2370,0.0,3.1,200.0,3.8,'11111222,11111222,11111222' 
TCOON,ioos:station:TCOON:005:1,2013-09-01T11:24:00Z,27.6346,-97.2370,0.0,3.3,198.0,3.7,'11111222,11111222,11111222' 
TCOON,ioos:station:TCOON:005:1,2013-09-01T11:30:00Z,27.6346,-97.2370,0.0,3.4,198.0,3.9,'11111222,11111222,11111222' 
TCOON,ioos:station:TCOON:005:1,2013-09-01T11:36:00Z,27.6346,-97.2370,0.0,3.4,197.0,3.9,'11111222,11111222,11111222' 
TCOON,ioos:station:TCOON:005:1,2013-09-01T11:42:00Z,27.6346,-97.2370,0.0,2.8,203.0,3.6,'11111222,11111222,11111222' 
TCOON,ioos:station:TCOON:005:1,2013-09-01T11:48:00Z,27.6346,-97.2370,0.0,2.9,211.0,3.9,'11111222,11111222,11111222' 
TCOON,ioos:station:TCOON:005:1,2013-09-01T11:54:00Z,27.6346,-97.2370,0.0,2.1,216.0,2.4,'11111222,11111222,11111222' 
TCOON,ioos:station:TCOON:005:1,2013-09-01T12:00:00Z,27.6346,-97.2370,0.0,2.3,209.0,2.9,'11111222,11111222,11111222' 
TCOON,ioos:station:TCOON:005:1,2013-09-01T12:06:00Z,27.6346,-97.2370,0.0,2.2,205.0,3.0,'11111222,11111222,11111222' 
TCOON,ioos:station:TCOON:005:1,2013-09-01T12:12:00Z,27.6346,-97.2370,0.0,2.4,224.0,2.9,'11111222,11111222,11111222' 
TCOON,ioos:station:TCOON:005:1,2013-09-01T12:18:00Z,27.6346,-97.2370,0.0,2.7,226.0,3.2,'11111222,11111222,11111222' 
TCOON,ioos:station:TCOON:005:1,2013-09-01T12:24:00Z,27.6346,-97.2370,0.0,2.4,224.0,3.0,'11111222,11111222,11111222' 
TCOON,ioos:station:TCOON:005:1,2013-09-01T12:30:00Z,27.6346,-97.2370,0.0,2.8,213.0,3.3,'11111222,11111222,11111222' 
TCOON,ioos:station:TCOON:005:1,2013-09-01T12:36:00Z,27.6346,-97.2370,0.0,2.3,219.0,2.8,'11111222,11111222,11111222' 
TCOON,ioos:station:TCOON:005:1,2013-09-01T12:42:00Z,27.6346,-97.2370,0.0,2.1,220.0,3.0,'11111222,11111222,11111222' 
TCOON,ioos:station:TCOON:005:1,2013-09-01T12:48:00Z,27.6346,-97.2370,0.0,1.6,244.0,2.3,'11111222,11111222,11111222' 
TCOON,ioos:station:TCOON:005:1,2013-09-01T12:54:00Z,27.6346,-97.2370,0.0,1.4,240.0,2.0,'11111222,11111222,11111222' 
TCOON,ioos:station:TCOON:005:1,2013-09-01T13:00:00Z,27.6346,-97.2370,0.0,1.4,232.0,2.1,'11111222,11111222,11111222' 
TCOON,ioos:station:TCOON:005:1,2013-09-01T13:06:00Z,27.6346,-97.2370,0.0,1.5,233.0,2.3,'11111222,11111222,11111222' 
TCOON,ioos:station:TCOON:005:1,2013-09-01T13:12:00Z,27.6346,-97.2370,0.0,1.7,248.0,2.1,'11111222,11111222,11111222' 
TCOON,ioos:station:TCOON:005:1,2013-09-01T13:18:00Z,27.6346,-97.2370,0.0,1.5,250.0,2.3,'11111222,11111222,11111222' 
TCOON,ioos:station:TCOON:005:1,2013-09-01T13:24:00Z,27.6346,-97.2370,0.0,1.4,252.0,2.0,'11111222,11111222,11111222' 
TCOON,ioos:station:TCOON:005:1,2013-09-01T13:30:00Z,27.6346,-97.2370,0.0,1.2,254.0,1.8,'11111222,11111222,11111222' 
TCOON,ioos:station:TCOON:005:1,2013-09-01T13:36:00Z,27.6346,-97.2370,0.0,1.1,256.0,1.8,'11111222,11111222,11111222' 
TCOON,ioos:station:TCOON:005:1,2013-09-01T13:42:00Z,27.6346,-97.2370,0.0,1.4,270.0,1.9,'11111222,11111222,11111222' 
TCOON,ioos:station:TCOON:005:1,2013-09-01T13:48:00Z,27.6346,-97.2370,0.0,0.8,286.0,1.6,'11111222,11111222,11111222' 
TCOON,ioos:station:TCOON:005:1,2013-09-01T13:54:00Z,27.6346,-97.2370,0.0,0.7,236.0,1.1,'11111222,11111222,11111222' 
TCOON,ioos:station:TCOON:005:1,2013-09-01T14:00:00Z,27.6346,-97.2370,0.0,0.9,263.0,1.4,'11111222,11111222,11111222' 
TCOON,ioos:station:TCOON:005:1,2013-09-01T14:06:00Z,27.6346,-97.2370,0.0,0.7,273.0,1.4,'11111222,11111222,11111222' 
TCOON,ioos:station:TCOON:005:1,2013-09-01T14:12:00Z,27.6346,-97.2370,0.0,0.7,253.0,1.2,'11111222,11111222,11111222' 
TCOON,ioos:station:TCOON:005:1,2013-09-01T14:18:00Z,27.6346,-97.2370,0.0,1.2,271.0,1.6,'11111222,11111222,11111222' 
TCOON,ioos:station:TCOON:005:1,2013-09-01T14:24:00Z,27.6346,-97.2370,0.0,1.1,280.0,1.8,'11111222,11111222,11111222' 
TCOON,ioos:station:TCOON:005:1,2013-09-01T14:30:00Z,27.6346,-97.2370,0.0,1.1,267.0,1.6,'11111222,11111222,11111222' 
TCOON,ioos:station:TCOON:005:1,2013-09-01T14:36:00Z,27.6346,-97.2370,0.0,1.2,226.0,1.7,'11111222,11111222,11111222' 
TCOON,ioos:station:TCOON:005:1,2013-09-01T14:42:00Z,27.6346,-97.2370,0.0,1.6,234.0,2.1,'11111222,11111222,11111222' 
TCOON,ioos:station:TCOON:005:1,2013-09-01T14:48:00Z,27.6346,-97.2370,0.0,1.7,227.0,2.2,'11111222,11111222,11111222' 
TCOON,ioos:station:TCOON:005:1,2013-09-01T14:54:00Z,27.6346,-97.2370,0.0,1.3,236.0,2.1,'11111222,11111222,11111222' 
TCOON,ioos:station:TCOON:005:1,2013-09-01T15:00:00Z,27.6346,-97.2370,0.0,1.5,236.0,2.4,'11111222,11111222,11111222' 
TCOON,ioos:station:TCOON:005:1,2013-09-01T15:06:00Z,27.6346,-97.2370,0.0,0.7,260.0,1.7,'11111222,11111222,11111222' 
TCOON,ioos:station:TCOON:005:1,2013-09-01T15:12:00Z,27.6346,-97.2370,0.0,1.4,295.0,2.1,'11111222,11111222,11111222' 
TCOON,ioos:station:TCOON:005:1,2013-09-01T15:18:00Z,27.6346,-97.2370,0.0,2.2,214.0,2.6,'11111222,11111222,11111222' 
TCOON,ioos:station:TCOON:005:1,2013-09-01T15:24:00Z,27.6346,-97.2370,0.0,1.9,217.0,3.0,'11111222,11111222,11111222' 
TCOON,ioos:station:TCOON:005:1,2013-09-01T15:30:00Z,27.6346,-97.2370,0.0,2.6,229.0,3.5,'11111222,11111222,11111222' 
TCOON,ioos:station:TCOON:005:1,2013-09-01T15:36:00Z,27.6346,-97.2370,0.0,2.2,231.0,3.1,'11111222,11111222,11111222' 
TCOON,ioos:station:TCOON:005:1,2013-09-01T15:42:00Z,27.6346,-97.2370,0.0,2.6,225.0,3.5,'11111222,11111222,11111222' 
TCOON,ioos:station:TCOON:005:1,2013-09-01T15:48:00Z,27.6346,-97.2370,0.0,2.8,226.0,3.3,'11111222,11111222,11111222' 
TCOON,ioos:station:TCOON:005:1,2013-09-01T15:54:00Z,27.6346,-97.2370,0.0,2.7,208.0,3.5,'11111222,11111222,11111222' 
TCOON,ioos:station:TCOON:005:1,2013-09-01T16:00:00Z,27.6346,-97.2370,0.0,2.8,217.0,3.4,'11111222,11111222,11111222' 
TCOON,ioos:station:TCOON:005:1,2013-09-01T16:06:00Z,27.6346,-97.2370,0.0,2.4,206.0,3.7,'11111222,11111222,11111222' 
TCOON,ioos:station:TCOON:005:1,2013-09-01T16:12:00Z,27.6346,-97.2370,0.0,3.7,156.0,5.2,'11111222,11111222,11111222' 
TCOON,ioos:station:TCOON:005:1,2013-09-01T16:18:00Z,27.6346,-97.2370,0.0,4.6,151.0,6.6,'11111222,11111222,11111222' 
TCOON,ioos:station:TCOON:005:1,2013-09-01T16:24:00Z,27.6346,-97.2370,0.0,4.1,157.0,5.6,'11111222,11111222,11111222' 
TCOON,ioos:station:TCOON:005:1,2013-09-01T16:30:00Z,27.6346,-97.2370,0.0,4.1,145.0,5.4,'11111222,11111222,11111222' 
TCOON,ioos:station:TCOON:005:1,2013-09-01T16:36:00Z,27.6346,-97.2370,0.0,5.0,142.0,7.0,'11111222,11111222,11111222' 
TCOON,ioos:station:TCOON:005:1,2013-09-01T16:42:00Z,27.6346,-97.2370,0.0,4.2,144.0,7.5,'11111222,11111222,11111222' 
TCOON,ioos:station:TCOON:005:1,2013-09-01T16:48:00Z,27.6346,-97.2370,0.0,3.7,157.0,8.5,'11111222,11111222,11111222' 
TCOON,ioos:station:TCOON:005:1,2013-09-01T16:54:00Z,27.6346,-97.2370,0.0,4.6,161.0,6.2,'11111222,11111222,11111222' 
TCOON,ioos:station:TCOON:005:1,2013-09-01T17:00:00Z,27.6346,-97.2370,0.0,4.4,146.0,7.0,'11111222,11111222,11111222' 
TCOON,ioos:station:TCOON:005:1,2013-09-01T17:06:00Z,27.6346,-97.2370,0.0,3.0,166.0,6.8,'11111222,11111222,11111222' 
TCOON,ioos:station:TCOON:005:1,2013-09-01T17:12:00Z,27.6346,-97.2370,0.0,4.5,150.0,7.1,'11111222,11111222,11111222' 
TCOON,ioos:station:TCOON:005:1,2013-09-01T17:18:00Z,27.6346,-97.2370,0.0,4.9,164.0,7.0,'11111222,11111222,11111222' 
TCOON,ioos:station:TCOON:005:1,2013-09-01T17:24:00Z,27.6346,-97.2370,0.0,4.6,147.0,6.7,'11111222,11111222,11111222' 
TCOON,ioos:station:TCOON:005:1,2013-09-01T17:30:00Z,27.6346,-97.2370,0.0,4.3,135.0,6.9,'11111222,11111222,11111222' 
TCOON,ioos:station:TCOON:005:1,2013-09-01T17:36:00Z,27.6346,-97.2370,0.0,4.1,129.0,5.9,'11111222,11111222,11111222' 
TCOON,ioos:station:TCOON:005:1,2013-09-01T17:42:00Z,27.6346,-97.2370,0.0,4.4,142.0,6.8,'11111222,11111222,11111222' 
TCOON,ioos:station:TCOON:005:1,2013-09-01T17:48:00Z,27.6346,-97.2370,0.0,3.8,145.0,6.2,'11111222,11111222,11111222' 
TCOON,ioos:station:TCOON:005:1,2013-09-01T17:54:00Z,27.6346,-97.2370,0.0,3.8,144.0,6.0,'11111222,11111222,11111222' 
TCOON,ioos:station:TCOON:005:1,2013-09-01T18:00:00Z,27.6346,-97.2370,0.0,4.6,155.0,7.0,'11111222,11111222,11111222' 
TCOON,ioos:station:TCOON:005:1,2013-09-01T18:06:00Z,27.6346,-97.2370,0.0,4.3,134.0,5.8,'11111222,11111222,11111222' 
TCOON,ioos:station:TCOON:005:1,2013-09-01T18:12:00Z,27.6346,-97.2370,0.0,4.6,144.0,6.4,'11111222,11111222,11111222' 
TCOON,ioos:station:TCOON:005:1,2013-09-01T18:18:00Z,27.6346,-97.2370,0.0,5.4,126.0,7.5,'11111222,11111222,11111222' 
TCOON,ioos:station:TCOON:005:1,2013-09-01T18:24:00Z,27.6346,-97.2370,0.0,4.5,137.0,7.3,'11111222,11111222,11111222' 
TCOON,ioos:station:TCOON:005:1,2013-09-01T18:30:00Z,27.6346,-97.2370,0.0,4.9,118.0,7.2,'11111222,11111222,11111222' 
TCOON,ioos:station:TCOON:005:1,2013-09-01T18:36:00Z,27.6346,-97.2370,0.0,5.0,142.0,7.2,'11111222,11111222,11111222' 
TCOON,ioos:station:TCOON:005:1,2013-09-01T18:42:00Z,27.6346,-97.2370,0.0,5.6,137.0,7.0,'11111222,11111222,11111222' 
TCOON,ioos:station:TCOON:005:1,2013-09-01T18:48:00Z,27.6346,-97.2370,0.0,6.3,119.0,7.3,'11111222,11111222,11111222' 
TCOON,ioos:station:TCOON:005:1,2013-09-01T18:54:00Z,27.6346,-97.2370,0.0,6.2,140.0,7.3,'11111222,11111222,11111222' 
TCOON,ioos:station:TCOON:005:1,2013-09-01T19:00:00Z,27.6346,-97.2370,0.0,6.2,118.0,7.4,'11111222,11111222,11111222' 
TCOON,ioos:station:TCOON:005:1,2013-09-01T19:06:00Z,27.6346,-97.2370,0.0,5.2,133.0,7.9,'11111222,11111222,11111222' 
TCOON,ioos:station:TCOON:005:1,2013-09-01T19:12:00Z,27.6346,-97.2370,0.0,4.9,125.0,7.2,'11111222,11111222,11111222' 
TCOON,ioos:station:TCOON:005:1,2013-09-01T19:18:00Z,27.6346,-97.2370,0.0,6.4,122.0,8.6,'11111222,11111222,11111222' 
TCOON,ioos:station:TCOON:005:1,2013-09-01T19:24:00Z,27.6346,-97.2370,0.0,5.7,126.0,7.7,'11111222,11111222,11111222' 
TCOON,ioos:station:TCOON:005:1,2013-09-01T19:30:00Z,27.6346,-97.2370,0.0,5.6,124.0,7.2,'11111222,11111222,11111222' 
TCOON,ioos:station:TCOON:005:1,2013-09-01T19:36:00Z,27.6346,-97.2370,0.0,6.1,120.0,7.3,'11111222,11111222,11111222' 
TCOON,ioos:station:TCOON:005:1,2013-09-01T19:42:00Z,27.6346,-97.2370,0.0,6.0,126.0,7.4,'11111222,11111222,11111222' 
TCOON,ioos:station:TCOON:005:1,2013-09-01T19:48:00Z,27.6346,-97.2370,0.0,4.8,136.0,7.7,'11111222,11111222,11111222' 
TCOON,ioos:station:TCOON:005:1,2013-09-01T19:54:00Z,27.6346,-97.2370,0.0,5.9,132.0,7.5,'11111222,11111222,11111222' 
TCOON,ioos:station:TCOON:005:1,2013-09-01T20:00:00Z,27.6346,-97.2370,0.0,6.1,129.0,7.2,'11111222,11111222,11111222' 
TCOON,ioos:station:TCOON:005:1,2013-09-01T20:06:00Z,27.6346,-97.2370,0.0,5.4,125.0,7.8,'11111222,11111222,11111222' 
TCOON,ioos:station:TCOON:005:1,2013-09-01T20:12:00Z,27.6346,-97.2370,0.0,5.6,124.0,7.6,'11111222,11111222,11111222' 
TCOON,ioos:station:TCOON:005:1,2013-09-01T20:18:00Z,27.6346,-97.2370,0.0,6.3,118.0,7.3,'11111222,11111222,11111222' 